Location: Unspecified
(0.0000°N, 0.0000°E)
Time: 04:01:33
(UTC+00:00)

A-11 Canister half - Pass Details

Date: 24 April 2026
Orbit: 1523 x 1685 km, 47.3° (Epoch: 13 May)

Event Time Altitude Azimuth Distance (km) Brightness Sun altitude
Rises 08:06:01 0° 312° (NW) 4,879 11.3 31.1°
Reaches altitude 10° 08:09:14 10° 309° (NW) 3,874 10.9 31.8°
Maximum altitude 08:18:54 60° 231° (SW) 1,791 9.5 34.2°
Drops below altitude 10° 08:28:17 10° 152° (SSE) 3,756 11.3 36.4°
Sets 08:31:23 0° 149° (SSE) 4,722 11.7 37.2°
